Tracking 19625 objects as of 26-May-2019
HD Live streaming from Space Station
objects crossing your sky now
Watch Starlink satellites crossing your sky!

SAUDISAT 1B

Track SAUDISAT 1B now!
10-day predictions
SAUDISAT 1B is classified as:


NORAD ID: 26549
Int'l Code: 2000-057E
Perigee: 593.6 km
Apogee: 656.9 km
Inclination: 64.6 °
Period: 97.1 minutes
Semi major axis: 6996 km
RCS: 0.096 m2 (small)
Launch date: September 26, 2000
Source: Saudi Arabia (SAUD)
Launch site: TYURATAM MISSILE AND SPACE COMPLEX (TTMTR)

Uplink (MHz):
Downlink (MHz): 436.075
Beacon (MHz):
Mode: 9600bps FSK
Call sign: SASAT2-11 -12
Status: Inactive

aabbcc
Your satellite tracking list
Your tracking list is empty




NASA's NSSDC Master Catalog

Two Line Element Set (TLE):
1 26549U 00057E   19145.95181456 -.00000059 +00000-0 +11321-4 0  9994
2 26549 064.5518 090.2794 0045265 316.2288 043.5233 14.83569236008397
Source of the keplerian elements: AFSPC